Herbert Island, British Columbia

11:53 AM PST on February 19, 2017 (GMT -0800)
Herbert Island

Weather History for CWLP - January, 2014

Change the Weather History Date:

Thursday, January 30, 2014

  Actual Average (CYZT) Record (CYZT)
Temperature  
Mean Temperature 44 °F -  
Max Temperature 47 °F 42 °F 50 °F (1997)
Min Temperature 40 °F 34 °F 28 °F (2011)
Degree Days  
Heating Degree Days 22    
Moisture  
Dew Point 39 °F    
Average Humidity 85    
Maximum Humidity 98    
Minimum Humidity 67    
Precipitation  
Precipitation 0.02 in - - ()
Sea Level Pressure  
Sea Level Pressure 29.84 in    
Wind  
Wind Speed 10 mph ()    
Max Wind Speed 22 mph    
Max Gust Speed 24 mph    
Averages and records for this station are not official NWS values.
T = Trace of Precipitation, MM = Missing Value Source: Averaged Metar Reports

Daily Weather History Graph

Daily Weather History Graph

Search for Another Location

Airport or City:

Trip Planner

Search our weather history database for the weather conditions in past years. The results will help you decide how hot, cold, wet, or windy it might be!

Date:

Astronomy

Jan. 30, 2014 Rise Set
Actual Time 8:09 AM PST 5:18 PM PST
Civil Twilight 7:33 AM PST 5:54 PM PST
Nautical Twilight 6:53 AM PST 6:34 PM PST
Astronomical Twilight 6:15 AM PST 7:13 PM PST
Moon 7:35 AM PST (1/30) 5:46 PM PST (1/30)
Length of Visible Light 10h 21m
Length of Day
9h 09m
Waning Crescent, 0% of the Moon is Illuminated
Jan 30
Waning Crescent
Jan 30
New
Feb 6
First Quarter
Feb 14
Full
Feb 22
Last Quarter

Hourly Weather History & Observations

Time (PST) Temp. Windchill Dew Point Humidity Pressure Visibility Wind Dir Wind Speed Gust Speed Precip Events Conditions
12:00 AM 41.9 °F 33.4 °F 39.9 °F 93% 29.82 in - NW 18.4 mph 24.2 mph N/A   Unknown
1:00 AM 43.5 °F 34.7 °F 39.7 °F 87% 29.82 in - NW 21.9 mph - 0.01 in   Unknown
2:00 AM 41.9 °F 34.0 °F 38.3 °F 87% 29.81 in - NW 16.1 mph - 0.01 in   Unknown
3:00 AM 43.5 °F 36.4 °F 40.3 °F 88% 29.81 in - NW 15.0 mph 20.7 mph N/A   Unknown
4:00 AM 44 °F - 41 °F 85% 29.81 in - NW 15.0 mph - -  
4:00 AM 43.5 °F 36.4 °F 41.0 °F 91% 29.81 in - NW 15.0 mph 20.7 mph N/A   Unknown
5:00 AM 43.0 °F 35.4 °F 40.3 °F 90% 29.80 in - NNW 16.1 mph - N/A   Unknown
6:00 AM 43.2 °F 37.0 °F 39.0 °F 85% 29.80 in - NNW 11.5 mph - N/A   Unknown
7:00 AM 43.0 °F 37.2 °F 39.4 °F 87% 29.80 in - NNW 10.4 mph - N/A   Unknown
8:00 AM 42.4 °F 37.5 °F 38.1 °F 85% 29.81 in - NW 8.1 mph - N/A   Unknown
9:00 AM 41.5 °F 37.8 °F 38.3 °F 88% 29.81 in - NW 5.8 mph - N/A   Unknown
10:00 AM 42 °F - 39 °F 84% 29.82 in - NW 8.1 mph - -  
10:00 AM 42.3 °F 37.3 °F 38.8 °F 88% 29.82 in - NW 8.1 mph - N/A   Unknown
11:00 AM 40.1 °F 35.3 °F 38.8 °F 95% 29.83 in - NNW 6.9 mph - N/A   Unknown
12:00 PM 42.3 °F 39.4 °F 38.1 °F 85% 29.84 in - North 4.6 mph - N/A   Unknown
1:00 PM 42.3 °F 39.4 °F 38.5 °F 86% 29.83 in - NNE 4.6 mph - N/A   Unknown
2:00 PM 47.5 °F - 38.1 °F 70% 29.83 in - Calm Calm - N/A   Unknown
3:00 PM 46.9 °F - 38.1 °F 71% 29.83 in - Calm Calm - N/A   Unknown
4:00 PM 44 °F - 37 °F 70% 29.84 in - NW 4.6 mph - -  
4:00 PM 44.2 °F 41.8 °F 37.4 °F 77% 29.84 in - NW 4.6 mph - N/A   Unknown
5:00 PM 43.3 °F 41.7 °F 38.1 °F 82% 29.85 in - WSW 3.5 mph - N/A   Unknown
6:00 PM 42.3 °F - 38.5 °F 86% 29.86 in - WSW 2.3 mph - N/A   Unknown
7:00 PM 42.1 °F - 38.8 °F 88% 29.87 in - SSW 2.3 mph - N/A   Unknown
8:00 PM 41.7 °F - 39.2 °F 91% 29.88 in - SSW 1.2 mph - N/A   Unknown
9:00 PM 40.1 °F 36.1 °F 39.6 °F 98% 29.90 in - South 5.8 mph - N/A   Unknown
10:00 PM 42 °F - 38 °F 82% 29.92 in - SE 6.9 mph - -  
10:00 PM 41.4 °F 36.8 °F 38.3 °F 89% 29.92 in - SE 6.9 mph - N/A   Unknown
11:00 PM 41.7 °F 34.4 °F 31.6 °F 67% 29.94 in - SE 13.8 mph - N/A   Unknown